INMARSAT 3-F2

Last updated on Aug. 8, 2020, 5:32 a.m. UTC

1 24307U 96053A   20220.58645765 -.00000242  00000-0  00000-0 0  9990
2 24307   5.0130  71.6026 0007528  36.9240 211.7693  1.00006277 87529
UTC
Height (km)
Latitude
Longitude
Inclination
Orbital Period
UTC large
Height (km)
Speed (km/s)
/
Latitude / Longitude
Inclination (degrees)
Orbital Period (minutes)
Azimuth
Elevation
Range (km)
Doppler Factor
iOS Compass Heading
iOS Angle

Next 30 passes for location: Hong Kong

Rise time Rise Azimuth (degrees) Set time Set Azimuth (degrees) Duration Max altitude (degrees)

No matching passes for this satellites